Miscellaneous Local Product
Issued by NWS Hastings, NE

Home | Current Version | Previous Version | Graphics & Text | Print | Product List | Glossary On
Versions: 1 2 3 4 5 6 7 8 9 10 11 12 13 14 15 16 17 18 19 20 21 22 23 24 25 26 27 28 29 30 31 32 33 34 35 36 37 38 39 40 41 42 43 44 45 46 47 48 49 50
211
AXUS43 KGID 240802
MISGRI

GID CWA HOURLY WEATHER ROUNDUP
NATIONAL WEATHER SERVICE HASTINGS NE
300 AM CDT FRI MAR 24 2017

NOTE: "FAIR" INDICATES FEW OR NO CLOUDS BELOW 12,000 FEET WITH NO
SIGNIFICANT WEATHER AND/OR OBSTRUCTIONS TO VISIBILITY.

...SOUTH CENTRAL NEBRASKA...

CITY           SKY/WX    TMP DP  RH WIND       PRES   REMARKS
GRAND ISLAND   LGT RAIN  55  54  96 NE16      29.76R
HASTINGS       LGT RAIN  56  53  90 N10       29.76R
KEARNEY        CLOUDY    54  50  87 NE8       29.76R
ORD            LGT RAIN  52  50  93 N12       29.74F
YORK           LGT RAIN  57  55  94 N8        29.75R
AURORA         RAIN      55  53  95 N13G18    29.76R
LEXINGTON      LGT RAIN  53  50  89 E17       29.75R
HOLDREGE       LGT RAIN  53  52  94 NE16      29.74F
HEBRON         CLOUDY    69  47  45 S13G20    29.71R

...NEBRASKA PANHANDLE...

CITY           SKY/WX    TMP DP  RH WIND       PRES   REMARKS
CHADRON        CLOUDY    42  37  82 N14       29.94S
ALLIANCE       CLOUDY    41  38  89 NE21      29.88R
SCOTTSBLUFF    CLOUDY    42  38  85 NE16      29.91R
SIDNEY         CLOUDY    42  39  89 N26G36    29.83R

...WESTERN AND NORTH CENTRAL NEBRASKA...

CITY           SKY/WX    TMP DP  RH WIND       PRES   REMARKS
VALENTINE      CLOUDY    43  38  82 N14G21    29.87R
AINSWORTH      CLOUDY    45  45 100 N14       29.85R
ONEILL         LGT RAIN  47  46  99 N12       29.82F
BROKEN BOW     CLOUDY    51  48  89 N17G24    29.77R
IMPERIAL       HVY RAIN  48  46  93 NE17      29.77R FOG
NORTH PLATTE   RAIN      52  49  89 N17       29.78S FOG
MCCOOK         NOT AVBL

...EASTERN NEBRASKA...

CITY           SKY/WX    TMP DP  RH WIND       PRES   REMARKS
NORFOLK        LGT RAIN  53  51  93 N5        29.77R
SO SIOUX CITY  LGT RAIN  48  48 100 N10       29.74F FOG
TEKAMAH        LGT RAIN  52  50  93 N13       29.74F
COLUMBUS       CLOUDY    55  52  88 N8        29.76R
ALBION         LGT RAIN  55  53  92 N6        29.76F
OMAHA EPPLEY   CLOUDY    65  52  62 N3        29.73R
OFFUTT AFB     CLOUDY    61  51  70 E3        29.71R
MILLARD        CLOUDY    69  53  55 NW6       29.73R
LINCOLN        CLOUDY    66  51  58 W5        29.72R
NEBRASKA CITY  CLOUDY    62  44  51 S9        29.72S
BEATRICE       LGT RAIN  69  50  50 S17G23    29.71R
FALLS CITY     CLOUDY    66  49  54 S15       29.74S

...NORTHERN KANSAS...

CITY           SKY/WX    TMP DP  RH WIND       PRES   REMARKS
GOODLAND       CLOUDY    54  50  86 N14       29.61R
HILL CITY      CLOUDY    57  55  93 NE14      29.64F
NORTON         LGT RAIN  55  50  82 N8        29.64F
PHILLIPSBURG   MOCLDY    55  55 100 N7        29.65F
RUSSELL        CLOUDY    66  45  46 SE15      29.61F
CONCORDIA      CLOUDY    70  48  45 S20G32    29.69S
SALINA         CLOUDY    71  48  43 S17G30    29.70F
TOPEKA         CLOUDY    68  52  56 S8        29.78F



USA.gov is the U.S. government's official web portal to all federal, state and local government web resources and services.